Weather History for Carroll, IA

Change the Weather History Date:

Thursday, December 1, 2011

  Actual Average Record
Temperature  
Mean Temperature 29 °F -  
Max Temperature 35 °F 35 °F 68 °F (1998)
Min Temperature 23 °F 19 °F -1 °F (1985)
Degree Days  
Heating Degree Days 36    
Moisture  
Dew Point 22 °F    
Average Humidity 70    
Maximum Humidity 80    
Minimum Humidity 60    
Precipitation  
Precipitation 0.00 in - - ()
Sea Level Pressure  
Sea Level Pressure 30.27 in    
Wind  
Wind Speed 10 mph (North)    
Max Wind Speed 24 mph    
Max Gust Speed 30 mph    
Visibility 10 miles    
Events Snow    
Averages and records for this station are not official NWS values.
T = Trace of Precipitation, MM = Missing Value Source: NWS Daily Summary

Daily Weather History Graph

Daily Weather History Graph

Search for Another Location

Airport:

Trip Planner

Search our weather history database for the weather conditions in past years. The results will help you decide how hot, cold, wet, or windy it might be!

Date:

Astronomy

Dec. 01, 2011 Rise Set
Actual Time 7:27 AM CST 4:48 PM CST
Civil Twilight 6:56 AM CST 5:19 PM CST
Nautical Twilight 6:21 AM CST 5:54 PM CST
Astronomical Twilight 5:47 AM CST 6:28 PM CST
Moon 12:08 PM CST 11:52 PM CST
Length of Visible Light 10h 23m
Length of Day
9h 21m
Waxing Crescent, 43% of the Moon is Illuminated
Dec 1
Waxing Crescent
Dec 2
First Quarter
Dec 10
Full
Dec 17
Last Quarter
Dec 24
New

Hourly Weather History & Observations

Time (CST) Temp. Windchill Dew Point Humidity Pressure Visibility Wind Dir Wind Speed Gust Speed Precip Events Conditions
12:15 AM 30.2 °F - 17.6 °F 60% 30.03 in 10.0 mi Calm Calm - N/A   Clear
12:35 AM 28.4 °F 23.3 °F 17.6 °F 64% 30.03 in 10.0 mi SE 4.6 mph - N/A   Clear
12:55 AM 28.4 °F - 17.6 °F 64% 30.03 in 10.0 mi Calm Calm - N/A   Clear
1:15 AM 28.4 °F - 17.6 °F 64% 30.03 in 10.0 mi Calm Calm - N/A   Clear
1:35 AM 28.4 °F 24.6 °F 19.4 °F 69% 30.04 in 10.0 mi SE 3.5 mph - N/A   Clear
1:55 AM 30.2 °F - 19.4 °F 64% 30.04 in 10.0 mi Calm Calm - N/A   Clear
2:15 AM 28.4 °F - 19.4 °F 69% 30.05 in 10.0 mi Calm Calm - N/A   Clear
2:35 AM 30.2 °F - 19.4 °F 64% 30.05 in 10.0 mi Calm Calm - N/A   Clear
2:55 AM 28.4 °F 22.2 °F 19.4 °F 69% 30.06 in 10.0 mi North 5.8 mph - N/A   Clear
3:35 AM 28.4 °F - 19.4 °F 69% 30.07 in 10.0 mi Calm Calm - N/A   Clear
3:55 AM 28.4 °F - 19.4 °F 69% 30.07 in 10.0 mi Calm Calm - N/A   Clear
4:15 AM 28.4 °F - 19.4 °F 69% 30.09 in 10.0 mi Calm Calm - N/A   Clear
4:35 AM 28.4 °F 21.2 °F 19.4 °F 69% 30.10 in 10.0 mi NNW 6.9 mph - N/A   Clear
4:55 AM 30.2 °F 24.3 °F 21.2 °F 69% 30.12 in 10.0 mi NNW 5.8 mph - N/A   Clear
5:15 AM 30.2 °F 22.6 °F 21.2 °F 69% 30.14 in 10.0 mi NNW 8.1 mph - N/A   Clear
5:35 AM 30.2 °F 19.3 °F 21.2 °F 69% 30.15 in 10.0 mi North 15.0 mph - N/A   Clear
5:55 AM 30.2 °F 19.8 °F 21.2 °F 69% 30.17 in 10.0 mi North 13.8 mph - N/A   Clear
6:15 AM 32.0 °F 21.6 °F 21.2 °F 64% 30.18 in 10.0 mi North 15.0 mph 19.6 mph N/A   Clear
6:35 AM 30.2 °F 20.2 °F 23.0 °F 75% 30.20 in 10.0 mi North 12.7 mph - N/A   Clear
7:15 AM 30.2 °F 21.9 °F 23.0 °F 75% 30.22 in 10.0 mi North 9.2 mph - N/A   Clear
7:55 AM 32.0 °F 23.0 °F 24.8 °F 75% 30.24 in 10.0 mi North 11.5 mph - N/A   Scattered Clouds
8:15 AM 32.0 °F 22.5 °F 26.6 °F 80% 30.25 in 10.0 mi North 12.7 mph - N/A   Scattered Clouds
8:35 AM 33.8 °F 23.2 °F 26.6 °F 75% 30.27 in 10.0 mi North 17.3 mph 21.9 mph N/A   Mostly Cloudy
8:55 AM 33.8 °F 22.8 °F 26.6 °F 75% 30.28 in 10.0 mi North 18.4 mph 26.5 mph N/A   Overcast
9:15 AM 33.8 °F 22.2 °F 26.6 °F 75% 30.29 in 10.0 mi North 20.7 mph 24.2 mph N/A   Overcast
9:35 AM 33.8 °F 21.9 °F 26.6 °F 75% 30.30 in 10.0 mi North 21.9 mph 28.8 mph N/A   Overcast
9:55 AM 33.8 °F 22.2 °F 26.6 °F 75% 30.31 in 10.0 mi North 20.7 mph 26.5 mph N/A   Overcast
10:15 AM 35.6 °F 24.2 °F 26.6 °F 70% 30.31 in 10.0 mi North 21.9 mph 27.6 mph N/A   Overcast
10:35 AM 35.6 °F 24.0 °F 26.6 °F 70% 30.33 in 7.0 mi North 23.0 mph 27.6 mph N/A   Overcast
10:55 AM 35.6 °F 24.0 °F 28.4 °F 75% 30.33 in 4.0 mi North 23.0 mph - N/A Snow Light Snow
11:15 AM 35.6 °F 24.0 °F 28.4 °F 75% 30.33 in 10.0 mi North 23.0 mph 28.8 mph N/A   Overcast
11:35 AM 35.6 °F 24.2 °F 26.6 °F 70% 30.33 in 10.0 mi North 21.9 mph 27.6 mph N/A   Overcast
11:55 AM 35.6 °F 24.0 °F 26.6 °F 70% 30.34 in 10.0 mi North 23.0 mph 29.9 mph N/A   Overcast
12:15 PM 33.8 °F 21.6 °F 26.6 °F 75% 30.34 in 10.0 mi North 23.0 mph 29.9 mph N/A   Overcast
12:35 PM 33.8 °F 21.3 °F 26.6 °F 75% 30.34 in 10.0 mi North 24.2 mph 28.8 mph N/A   Overcast
1:15 PM 33.8 °F 22.2 °F 26.6 °F 75% 30.34 in 10.0 mi North 20.7 mph 27.6 mph N/A   Overcast
1:35 PM 33.8 °F 22.8 °F 26.6 °F 75% 30.35 in 10.0 mi North 18.4 mph 24.2 mph N/A   Overcast
1:55 PM 33.8 °F 23.2 °F 26.6 °F 75% 30.36 in 10.0 mi North 17.3 mph 28.8 mph N/A   Overcast
2:15 PM 33.8 °F 21.6 °F 26.6 °F 75% 30.36 in 10.0 mi NNW 23.0 mph - N/A   Overcast
2:35 PM 33.8 °F 21.6 °F 24.8 °F 70% 30.37 in 10.0 mi North 23.0 mph 27.6 mph N/A   Mostly Cloudy
2:55 PM 33.8 °F 22.2 °F 24.8 °F 70% 30.38 in 10.0 mi North 20.7 mph - N/A   Mostly Cloudy
3:15 PM 33.8 °F 22.2 °F 24.8 °F 70% 30.38 in 10.0 mi NNW 20.7 mph - N/A   Scattered Clouds
3:35 PM 33.8 °F 23.2 °F 24.8 °F 70% 30.39 in 10.0 mi North 17.3 mph 21.9 mph N/A   Clear
3:55 PM 32.0 °F 20.8 °F 23.0 °F 69% 30.40 in 10.0 mi North 17.3 mph - N/A   Clear
4:15 PM 32.0 °F 20.1 °F 23.0 °F 69% 30.40 in 10.0 mi North 19.6 mph 24.2 mph N/A   Clear
4:35 PM 30.2 °F 18.5 °F 21.2 °F 69% 30.41 in 10.0 mi NNW 17.3 mph - N/A   Clear
5:15 PM 30.2 °F 20.2 °F 21.2 °F 69% 30.42 in 10.0 mi NNW 12.7 mph - N/A   Clear
5:35 PM 30.2 °F 18.9 °F 21.2 °F 69% 30.42 in 10.0 mi NNW 16.1 mph 19.6 mph N/A   Clear
5:55 PM 28.4 °F 18.0 °F 19.4 °F 69% 30.43 in 10.0 mi NNW 12.7 mph - N/A   Clear
6:15 PM 28.4 °F 17.0 °F 19.4 °F 69% 30.43 in 10.0 mi NNW 15.0 mph - N/A   Clear
6:35 PM 28.4 °F 16.6 °F 19.4 °F 69% 30.44 in 10.0 mi NNW 16.1 mph - N/A   Clear
6:55 PM 28.4 °F 16.6 °F 17.6 °F 64% 30.44 in 10.0 mi NNW 16.1 mph - N/A   Clear
7:15 PM 26.6 °F 14.7 °F 17.6 °F 69% 30.45 in 10.0 mi NNW 15.0 mph - N/A   Clear
7:35 PM 24.8 °F 11.1 °F 15.8 °F 69% 30.46 in 10.0 mi NNW 18.4 mph - N/A   Clear
7:55 PM 24.8 °F 11.9 °F 15.8 °F 69% 30.46 in 10.0 mi NNW 16.1 mph - N/A   Clear
8:15 PM 23.0 °F 11.7 °F 15.8 °F 74% 30.47 in 10.0 mi NNW 11.5 mph - N/A   Clear
8:35 PM 23.0 °F 11.1 °F 14.0 °F 68% 30.47 in 10.0 mi NNW 12.7 mph 20.7 mph N/A   Clear
8:55 PM 21.2 °F 8.9 °F 12.2 °F 68% 30.48 in 10.0 mi NNW 12.7 mph - N/A   Clear
9:15 PM 21.2 °F 10.1 °F 12.2 °F 68% 30.48 in 10.0 mi NNW 10.4 mph - N/A   Clear
9:35 PM 19.4 °F 8.6 °F 12.2 °F 74% 30.48 in 10.0 mi NNW 9.2 mph - N/A   Clear
9:55 PM 19.4 °F 8.6 °F 10.4 °F 68% 30.49 in 10.0 mi NNW 9.2 mph - N/A   Clear
10:15 PM 17.6 °F 10.7 °F 10.4 °F 73% 30.49 in 10.0 mi NW 4.6 mph - N/A   Clear
10:35 PM 17.6 °F 12.3 °F 10.4 °F 73% 30.48 in 10.0 mi WNW 3.5 mph - N/A   Clear
11:15 PM 15.8 °F 7.2 °F 8.6 °F 73% 30.48 in 10.0 mi WNW 5.8 mph - N/A   Clear
11:55 PM 15.8 °F 7.2 °F 8.6 °F 73% 30.48 in 10.0 mi WNW 5.8 mph - N/A   Clear